This demonstration page uses our WeatherBlox Daily Observations layout. Learn more.

Left ArrowRight Arrow

44.8408, -93.29828

Hourly Observations for September 6, 2017

Temp ( °F °C ) Dew Point ( °F °C ) Humidity (%) Winds ( mph kmh ) Pressure ( in mb ) Visibility ( mi km ) Precip ( " mm )
12:53 am 00:53 Mostly Cloudy 55 12.8 46 7.8 72 72 NNW 5 7 30.09 1019 10 16 0.00 0.00
1:53 am 01:53 Mostly Cloudy 54 12.2 46 7.8 75 75 NW 6 9 30.09 1019 10 16 0.00 0.00
2:53 am 02:53 Cloudy 54 12.2 46 7.8 75 75 N 7 11 30.10 1019 10 16 0.00 0.00
3:53 am 03:53 Mostly Cloudy 52 11.1 46 7.8 80 80 N 6 9 30.10 1019 10 16 0.00 0.00
4:53 am 04:53 Mostly Cloudy 51 10.6 46 7.8 83 83 NW 5 7 30.11 1020 10 16 0.00 0.00
5:53 am 05:53 Mostly Clear 50 10 47 8.3 89 89 NW 5 7 30.11 1020 10 16 0.00 0.00
6:53 am 06:53 Mostly Sunny 50 10 47 8.3 89 89 NW 6 9 30.13 1020 10 16 0.00 0.00
7:53 am 07:53 Mostly Sunny 53 11.7 48 8.9 83 83 NNW 7 11 30.13 1020 10 16 0.00 0.00
8:53 am 08:53 Mostly Sunny 57 13.9 48 8.9 72 72 N 8 13 30.13 1020 10 16 0.00 0.00
9:53 am 09:53 Partly Cloudy 59 15 48 8.9 67 67 NNW 9 15 30.13 1020 10 16 0.00 0.00
10:53 am 10:53 Partly Cloudy 62 16.7 48 8.9 60 60 NW 12 19 30.13 1020 10 16 0.00 0.00
11:53 am 11:53 Mostly Cloudy 65 18.3 48 8.9 54 54 N 7 11 30.12 1020 10 16 0.00 0.00
12:53 pm 12:53 Mostly Cloudy 66 18.9 47 8.3 50 50 N 10 17 30.11 1020 10 16 0.00 0.00
1:53 pm 13:53 Mostly Cloudy 67 19.4 45 7.2 45 45 VRB 6 9 30.11 1020 10 16 0.00 0.00
2:53 pm 14:53 Mostly Cloudy 65 18.3 44 6.7 47 47 N 6 9 30.09 1019 10 16 0.00 0.00
3:53 pm 15:53 Cloudy 65 18.3 46 7.8 51 51 NW 8 13 30.08 1019 10 16 0.00 0.00
4:53 pm 16:53 Mostly Cloudy 66 18.9 46 7.8 49 49 NW 7 11 30.07 1018 10 16 0.00 0.00
5:53 pm 17:53 Mostly Cloudy 65 18.3 45 7.2 49 49 NW 9 15 30.07 1018 10 16 0.00 0.00
6:53 pm 18:53 Cloudy 65 18.3 43 6.1 45 45 NW 9 15 30.06 1018 10 16 0.00 0.00
7:53 pm 19:53 Mostly Cloudy 63 17.2 43 6.1 48 48 WNW 8 13 30.06 1018 10 16 0.00 0.00
8:53 pm 20:53 Mostly Cloudy 60 15.6 44 6.7 56 56 NW 6 9 30.07 1018 10 16 0.00 0.00
9:53 pm 21:53 Mostly Cloudy 59 15 46 7.8 62 62 NW 3 6 30.07 1018 10 16 0.00 0.00
10:53 pm 22:53 Partly Cloudy 57 13.9 47 8.3 69 69 NNW 3 6 30.07 1018 10 16 0.00 0.00
11:53 pm 23:53 Partly Cloudy 53 11.7 48 8.9 83 83 NW 5 7 30.07 1018 10 16 0.00 0.00

Powered by AerisWeather